Location: Atlantic Beach
(40.5890°N, 73.7290°W)
Time: 08:19:06
(UTC+00:00)

Envisat - Pass Details

Date: 22 January 2021
Orbit: 764 x 766 km, 98.1° (Epoch: 24 February)

Event Time Altitude Azimuth Distance (km) Brightness Sun altitude
Rises 22:41:09 0° 194° (SSW) 3,218 6.7 -7.9°
Reaches altitude 10° 22:43:45 10° 206° (SSW) 2,296 6.2 -8.3°
Maximum altitude 22:48:04 28° 265° (W) 1,413 5.4 -9.1°
Drops below altitude 10° 22:52:24 10° 324° (NW) 2,310 5.7 -9.9°
Sets 22:55:02 0° 336° (NNW) 3,241 6.3 -10.4°
